This is the latest recevied weather packets stored in our database for station/object SP9MUF-14. If no packets are shown the sender has not sent any weather packets the latest 10 day(s).
| Time | Temp. | Humidity | Pressure | Rain* | Wind** | Luminosity | Snow |
|---|---|---|---|---|---|---|---|
| 1787591010 | 20.56° C | 44% | 1020.2 hPa | 0 mm | - | 24 W/m² | - |
| 1787590707 | 21.67° C | 42% | 1020.2 hPa | 0 mm | - | 29 W/m² | - |
| 1787590405 | 21.67° C | 43% | 1020.1 hPa | 0 mm | - | 34 W/m² | - |
| 1787590103 | 21.67° C | 41% | 1020.1 hPa | 0 mm | - | 33 W/m² | - |
| 1787589498 | 22.78° C | 41% | 1020.1 hPa | 0 mm | - | 49 W/m² | - |
| 1787589196 | 21.67° C | 40% | 1020.1 hPa | 0 mm | - | 45 W/m² | - |
| 1787588894 | 21.67° C | 41% | 1020.1 hPa | 0 mm | - | 48 W/m² | - |
| 1787588289 | 22.78° C | 40% | 1020 hPa | 0 mm | - | 53 W/m² | - |
| 1787587987 | 22.78° C | 37% | 1020 hPa | 0 mm | - | 67 W/m² | - |
| 1787587684 | 22.78° C | 38% | 1020.1 hPa | 0 mm | - | 71 W/m² | - |
| 1787587382 | 22.78° C | 39% | 1020.1 hPa | 0 mm | - | 65 W/m² | - |
| 1787587080 | 22.78° C | 36% | 1020 hPa | 0 mm | - | 76 W/m² | - |
| 1787586778 | 22.78° C | 36% | 1020.1 hPa | 0 mm | - | 84 W/m² | - |
| 1787586475 | 22.78° C | 36% | 1020.1 hPa | 0 mm | - | 85 W/m² | - |
| 1787586173 | 22.78° C | 36% | 1020.2 hPa | 0 mm | - | 97 W/m² | - |
| 1787585871 | 21.67° C | 36% | 1020.3 hPa | 0 mm | - | 106 W/m² | - |
| 1787585569 | 22.78° C | 36% | 1020.3 hPa | 0 mm | - | 116 W/m² | - |
| 1787585266 | 22.78° C | 36% | 1020.2 hPa | 0 mm | - | 127 W/m² | - |
| 1787584964 | 21.67° C | 36% | 1020.4 hPa | 0 mm | - | 137 W/m² | - |
| 1787584662 | 22.78° C | 37% | 1020.3 hPa | 0 mm | - | 146 W/m² | - |
| 1787584057 | 22.78° C | 36% | 1020.4 hPa | 0 mm | - | 171 W/m² | - |
| 1787583754 | 22.78° C | 37% | 1020.8 hPa | 0 mm | - | 184 W/m² | - |
| 1787583150 | 22.78° C | 38% | 1020.4 hPa | 0 mm | - | 210 W/m² | - |
| 1787582848 | 22.78° C | 37% | 1020.3 hPa | 0 mm | - | 225 W/m² | - |
| 1787582243 | 22.78° C | 38% | 1020.4 hPa | 0 mm | - | 250 W/m² | - |
* Rain latest hour (hover to see other rain measurements)
** Current wind speed in m/s (hover to see current wind gust speed)